Location: Elstree
(51.6403°N, 0.2969°W)
Time: 07:40:34
(UTC+00:00)

Envisat - Pass Details

Date: 02 December 2022
Orbit: 763 x 765 km, 98.2° (Epoch: 04 February)

Event Time Altitude Azimuth Distance (km) Brightness Sun altitude
Rises 03:16:36 0° 23° (NNE) 3,247 6.7 -40.6°
Reaches altitude 10° 03:19:21 10° 37° (NE) 2,315 6.0 -40.2°
Enters shadow 03:21:13 18° 55° (NE) 1,810 5.4 -39.9°
